Back to catalog

SL-16 DEB

AliveLEO
NORAD 22405·DEBRIS·🇷🇺 Russia

Launched Dec 25, 1992 from Baikonur Cosmodrome

Loading…

Next Passes (next 24 hours)

TLE

FreshSource: Space-Track

Epoch: Sep 14, 2026, 10:29 UTC

1 22405U 92093CW  26257.43713694  .00000230  00000-0  78672-4 0  9994
2 22405  71.0349  53.2848 0119696  89.5104 271.9747 14.42651604747455

Track SL-16 DEB in real time with AllMySat

Download on the App Store